Theta_e
332 334 332 328 329 329 330 331 333 334 332 333 330 325 323 321 322 332 336 335 338 336 336 341 341 342 342 341 343 343 343 345 347 348 347 347 348 351 353 353 355 356 355 355 354 353 352 352 352 352 352 351 352 351 352 353 354 354 354 354 354 355 356 357 357 357 356 355 356 357 356 355 355 356 355 352 351 351 350 349 350 353 355 357 356 356
334 332 331 332 332 331 331 332 334 334 332 330 328 323 321 321 323 332 336 335 337 335 334 340 340 341 342 340 341 342 344 345 346 349 350 349 348 350 354 353 354 355 355 355 354 354 353 352 353 353 352 351 352 352 352 353 353 353 353 353 355 354 354 355 356 355 355 354 355 355 356 355 355 356 355 353 353 352 350 349 350 352 355 357 357 357
331 330 332 333 331 331 332 332 333 333 333 329 327 321 317 321 325 329 334 336 337 334 334 339 337 338 342 341 340 342 343 344 344 345 349 353 353 352 354 353 355 355 355 356 354 353 353 353 353 354 353 353 352 353 352 352 353 352 353 353 354 354 353 353 353 354 353 353 355 355 355 355 355 356 356 354 354 352 350 349 349 352 354 356 357 357
324 327 332 332 330 331 331 331 332 330 331 330 327 319 314 322 323 319 327 336 337 335 336 339 336 337 342 341 341 341 341 342 343 340 343 352 354 354 354 354 355 356 357 357 354 352 353 354 354 354 355 354 353 354 353 353 353 353 353 354 354 354 353 353 352 353 354 353 354 355 355 355 354 355 355 354 353 352 351 349 350 352 354 356 357 358
326 328 329 331 330 331 330 330 332 328 326 330 330 322 318 323 324 321 328 334 335 335 337 336 327 329 338 340 341 341 341 340 340 341 342 343 348 352 354 355 354 356 358 357 354 354 353 353 355 355 356 355 354 354 354 354 354 354 354 355 354 354 354 354 353 353 354 354 355 355 355 355 353 353 353 354 353 353 352 350 350 352 354 356 357 358
326 327 328 329 329 329 329 330 331 328 323 324 331 329 324 326 327 327 331 329 323 323 333 333 318 319 333 339 340 340 340 341 340 341 344 344 347 353 356 356 354 356 357 356 355 354 353 355 356 356 357 356 355 355 355 355 356 355 355 356 355 355 355 355 354 354 354 355 356 356 356 355 354 353 353 353 353 353 353 350 350 352 355 357 358 358
325 327 327 328 328 328 329 328 330 332 324 319 327 331 329 329 328 327 327 322 314 315 331 335 321 317 325 333 340 342 340 341 341 341 342 345 348 353 356 355 354 356 356 356 356 355 354 355 356 357 357 357 356 356 356 356 356 356 355 357 357 356 356 356 355 355 354 356 356 356 357 356 355 355 353 352 353 353 353 351 350 352 356 358 359 358
326 327 327 330 329 328 327 326 330 333 324 320 329 330 328 329 327 327 325 319 317 321 329 332 327 318 316 327 340 342 340 342 342 342 343 344 346 352 355 355 355 355 355 356 355 355 355 354 354 356 358 358 357 357 357 357 357 357 356 357 357 357 357 357 356 356 355 357 357 357 357 356 355 354 353 353 353 353 353 353 352 352 355 358 359 358
328 326 327 330 329 327 327 327 331 333 327 326 331 330 328 328 328 328 324 318 320 320 316 321 326 318 314 325 340 343 338 339 341 341 343 343 344 352 354 354 354 353 354 356 355 356 356 356 356 355 358 358 358 358 358 358 357 357 357 357 358 358 357 357 357 357 356 357 358 358 358 358 357 355 354 354 354 354 354 354 354 352 354 357 358 358
329 327 327 328 328 327 328 330 331 331 329 328 329 329 329 328 327 327 323 318 317 315 311 315 318 315 313 319 331 336 332 335 340 340 342 344 344 349 351 349 350 352 354 355 355 357 356 357 357 356 358 360 358 359 358 358 358 357 358 358 358 359 358 358 358 358 358 358 358 359 358 359 358 357 356 355 356 357 355 355 355 353 353 356 358 358
329 328 328 327 328 328 328 329 329 328 329 329 329 327 325 326 326 325 322 317 313 312 312 314 316 315 313 316 325 331 333 337 341 339 341 342 341 347 349 348 349 351 353 354 354 356 356 355 356 354 358 361 358 359 358 357 358 358 359 359 359 360 359 359 359 359 359 358 359 360 359 359 359 358 357 357 358 358 357 357 356 354 353 355 358 359
329 328 328 327 327 329 329 328 329 329 328 327 328 324 318 317 318 316 315 314 311 310 312 315 318 316 311 315 326 335 338 338 339 339 340 340 341 345 348 348 350 352 352 353 354 357 357 357 359 358 359 360 359 359 359 358 359 359 360 360 360 361 361 360 359 359 360 359 360 360 360 360 360 359 358 358 359 358 358 358 357 356 355 355 357 360
326 328 329 328 327 329 329 325 325 327 327 327 325 318 312 310 311 311 310 310 309 309 313 316 317 314 312 319 330 337 338 338 339 340 339 340 341 345 347 347 351 352 350 351 354 355 357 360 362 360 358 360 361 360 360 359 359 361 361 361 361 362 362 361 360 360 360 360 360 361 361 360 360 360 359 358 358 358 358 358 358 358 358 357 357 360
319 325 328 328 328 329 328 324 319 321 324 325 319 313 310 309 311 313 313 312 311 309 312 317 316 312 312 322 332 335 335 338 340 339 339 341 342 346 349 346 347 351 351 351 353 352 354 358 359 358 358 360 362 361 361 360 361 362 363 363 362 362 362 362 361 361 361 361 361 361 361 360 361 360 360 359 357 357 358 359 360 359 360 360 359 359
313 317 324 327 327 328 330 327 323 324 324 324 325 319 313 310 312 314 313 312 312 310 311 314 315 310 310 320 333 333 333 336 337 338 340 343 345 347 348 344 343 349 352 350 352 353 354 357 358 358 358 361 363 362 361 361 361 363 364 364 364 363 363 362 362 362 362 362 361 361 361 360 361 360 360 359 357 355 357 359 361 360 360 361 361 360
312 314 324 328 328 329 328 328 330 328 322 323 327 320 313 315 317 313 312 312 310 310 310 311 312 315 319 327 333 331 332 333 335 336 338 340 346 348 349 345 340 348 352 350 352 354 356 359 360 359 359 362 364 362 361 361 361 362 364 365 365 364 363 362 362 363 362 362 362 361 361 360 360 360 360 360 358 356 356 357 360 362 361 361 361 361
312 314 327 328 327 330 328 328 330 326 320 322 320 315 317 325 322 312 310 312 310 309 311 310 311 315 320 325 330 331 332 332 333 334 335 338 344 347 349 346 340 344 351 352 352 355 356 358 358 358 359 360 363 362 362 362 362 363 364 365 366 365 365 363 363 363 363 363 362 362 361 360 360 361 360 360 359 357 356 356 359 362 362 361 361 361
318 315 326 329 326 329 328 327 330 328 326 322 315 317 323 325 323 317 312 312 311 310 311 310 309 312 312 316 327 331 331 332 333 333 333 336 340 344 348 348 344 341 346 352 355 355 355 354 355 358 358 359 364 364 363 364 363 363 364 365 366 367 367 365 363 363 363 363 363 362 361 360 360 361 360 359 359 357 356 356 358 360 362 362 361 360
324 314 321 330 327 327 331 328 326 327 330 326 321 324 323 315 314 315 312 312 313 312 312 311 310 311 310 314 323 329 330 332 333 334 334 334 336 341 345 347 347 343 343 352 354 353 354 354 356 360 359 360 365 364 363 363 363 363 365 366 367 367 368 367 365 365 365 364 365 363 362 361 360 360 360 359 358 357 357 357 358 359 361 363 362 359
328 317 315 327 329 328 329 326 319 321 327 328 327 327 324 317 315 314 314 314 313 313 314 313 311 311 315 323 327 330 333 333 333 336 336 333 334 338 343 347 347 344 345 351 351 351 351 350 352 359 361 362 363 365 364 362 361 363 365 367 368 369 369 368 367 365 366 366 366 364 362 361 360 359 360 359 359 359 357 357 358 359 360 362 363 361
328 322 313 323 330 324 322 324 322 321 323 322 321 320 320 320 319 318 316 313 313 314 314 314 312 311 321 333 333 333 335 333 334 337 336 335 334 337 344 348 347 343 346 350 350 350 350 350 353 357 362 360 360 364 364 362 362 362 364 368 369 370 370 369 368 366 366 367 366 364 363 363 361 360 360 360 359 360 359 358 358 358 360 360 361 362
325 323 315 317 319 316 319 327 329 327 326 323 320 319 319 318 316 314 314 313 312 312 312 314 311 312 324 335 335 334 335 333 334 335 335 335 333 336 341 345 347 347 346 347 346 345 349 353 353 353 357 357 356 362 364 362 363 362 364 368 369 370 370 369 369 367 367 368 366 363 364 364 363 360 360 360 360 360 360 361 360 359 360 361 360 361
327 326 318 315 318 321 326 329 328 327 328 327 325 326 326 322 315 310 310 312 311 311 312 312 310 315 329 337 334 334 336 333 333 335 336 334 333 338 338 340 348 348 344 343 343 343 347 350 351 352 355 354 354 360 364 364 363 363 365 367 367 369 370 369 369 368 367 367 365 364 364 364 363 362 361 361 362 361 360 361 362 359 360 362 362 362
328 326 319 316 324 329 327 328 328 329 328 325 324 327 327 323 320 317 316 316 313 310 311 311 310 316 330 339 334 333 336 333 333 334 334 335 334 337 337 339 348 350 348 346 346 349 351 351 355 357 357 356 358 363 366 364 364 363 364 365 366 368 369 369 369 368 367 367 365 365 364 364 364 364 364 364 364 363 361 362 362 361 360 361 363 363
326 326 321 317 320 322 320 321 323 324 325 324 324 327 327 326 326 323 321 320 315 311 312 311 309 315 329 340 334 331 333 332 333 332 333 335 334 337 344 351 354 354 352 350 351 355 355 355 360 363 361 362 364 365 366 365 365 364 363 365 366 367 368 369 368 368 367 367 366 365 364 364 365 365 365 364 363 363 362 362 362 362 362 362 363 363
325 330 325 319 318 317 314 314 316 319 322 323 324 326 325 327 326 321 317 315 313 315 315 311 309 317 332 338 333 331 331 332 335 333 332 335 336 344 357 362 361 359 356 355 356 358 357 359 363 364 367 369 367 365 366 365 365 365 363 365 365 365 367 367 367 368 367 368 367 365 366 365 364 364 365 364 362 362 362 361 362 363 365 364 362 362
327 330 328 325 322 319 318 321 325 325 321 318 320 322 324 326 327 323 316 312 315 318 314 316 319 320 327 334 334 330 329 333 334 333 336 342 341 346 356 361 361 359 359 358 360 363 365 367 369 369 370 371 366 363 365 366 365 365 365 364 364 364 364 365 366 366 366 368 368 366 366 366 363 362 363 363 361 360 361 361 361 363 364 365 364 362
327 326 328 330 325 326 332 333 332 330 322 318 319 320 323 325 326 322 315 316 324 317 311 326 336 323 323 333 334 331 333 336 335 333 340 344 340 342 351 354 353 352 355 359 364 370 371 371 378 380 374 370 366 363 364 364 365 366 366 365 364 363 363 364 365 365 366 368 368 367 365 365 364 362 361 362 361 360 360 360 360 361 362 364 365 363
326 324 327 328 325 328 334 332 333 333 328 325 324 321 323 324 323 320 318 323 329 319 315 332 338 326 327 333 331 333 336 335 334 336 338 338 338 343 347 346 344 343 347 356 364 371 371 371 382 387 379 371 367 364 363 363 364 366 366 364 365 363 362 363 364 364 365 367 368 368 366 365 365 362 361 361 361 360 359 359 360 360 360 363 364 364
323 324 329 328 324 326 330 331 332 331 328 327 327 324 324 325 323 322 324 327 329 325 326 334 334 329 332 332 329 333 336 334 336 338 335 335 338 343 343 340 339 339 342 351 358 366 372 376 383 388 385 379 371 366 364 362 364 366 365 364 364 364 363 362 363 364 363 365 368 368 366 366 365 363 362 361 361 361 360 359 360 360 360 361 362 363
322 324 330 329 323 323 327 331 331 331 329 325 325 327 326 325 324 323 325 327 327 326 328 333 333 332 333 335 335 337 338 337 337 337 336 336 337 338 336 334 337 339 343 351 358 363 369 375 379 384 386 382 375 369 364 363 363 364 363 363 363 363 363 362 364 364 363 364 367 368 367 366 365 365 363 361 361 362 360 360 360 361 360 360 360 362
322 324 328 327 321 320 325 328 327 328 329 322 322 327 325 323 323 323 325 327 326 325 326 326 325 330 336 339 337 336 338 336 336 335 335 336 335 334 334 334 337 341 343 352 362 368 367 367 373 377 376 372 370 367 364 365 362 361 361 361 362 362 362 362 363 365 364 364 366 367 368 367 367 366 365 364 363 362 362 362 361 361 361 360 360 361
321 323 323 323 320 320 324 326 326 325 323 319 321 326 327 328 327 325 326 328 329 328 325 322 326 335 342 339 336 336 336 335 336 335 335 340 343 339 335 334 336 336 337 344 356 362 360 359 366 370 367 364 364 363 362 362 362 361 361 359 360 361 361 360 361 364 366 365 365 368 369 368 368 367 367 366 364 363 364 363 362 362 362 361 360 360
319 321 322 323 321 320 322 324 324 321 318 321 327 330 330 331 329 327 326 328 329 330 328 329 335 341 340 337 336 337 336 336 339 339 338 342 345 340 336 336 336 337 339 338 339 348 358 365 368 366 362 360 361 359 359 358 359 361 360 358 359 360 360 360 360 362 365 366 366 368 369 369 369 369 368 368 366 365 365 365 364 363 362 362 362 361
317 318 321 323 321 320 321 322 321 319 321 326 329 331 330 329 330 330 331 329 329 329 330 334 336 338 338 337 335 337 337 336 337 337 337 337 338 339 337 335 335 336 337 339 345 357 367 371 366 361 357 354 353 353 353 356 358 359 358 358 359 359 359 360 359 360 365 367 366 368 370 370 370 370 369 369 369 368 366 366 366 365 363 363 363 362
315 317 319 321 321 321 320 320 321 323 326 328 331 331 329 330 330 328 327 329 331 331 331 334 335 337 337 335 334 336 337 336 336 338 339 336 335 334 330 330 339 343 343 350 361 368 370 365 359 360 360 358 354 350 347 349 352 356 357 357 357 358 360 362 361 360 364 368 367 367 370 371 371 371 371 370 370 370 368 368 367 367 366 364 363 363
314 315 318 320 321 321 318 317 320 322 322 325 329 329 329 330 330 327 324 326 330 331 332 334 334 332 332 331 334 337 336 337 341 340 338 335 336 340 340 343 351 355 353 355 360 365 368 366 365 365 364 361 358 354 350 348 347 349 354 356 356 358 359 362 364 363 363 367 368 367 369 371 371 372 371 371 372 372 370 369 369 369 368 366 364 365
313 315 318 320 321 321 319 318 320 319 318 322 325 330 332 328 329 332 325 324 334 334 329 330 334 335 336 333 334 339 343 345 345 342 342 344 345 350 354 353 354 354 352 354 359 363 366 365 363 362 361 360 357 356 355 354 353 353 357 358 357 358 359 362 365 364 364 367 368 367 369 370 371 373 373 373 374 374 372 371 370 370 369 367 366 365
312 314 317 318 319 319 319 319 320 317 319 325 329 330 328 326 332 332 322 325 342 347 337 334 336 338 340 338 337 342 346 345 344 345 348 348 348 351 353 352 354 354 352 355 360 361 360 360 361 362 364 364 367 366 362 360 359 360 362 362 359 359 361 361 363 364 365 367 369 368 368 369 371 373 374 374 375 375 374 372 371 371 370 369 367 365
312 314 315 317 318 319 319 319 319 320 323 328 330 328 327 329 332 326 320 328 344 347 340 340 340 338 342 344 344 346 347 346 346 347 348 346 346 350 350 349 351 352 352 354 358 358 358 360 364 367 366 366 369 369 366 365 366 364 364 364 362 360 361 362 361 362 363 366 367 368 368 369 371 373 375 375 375 375 374 372 371 371 371 370 368 366
312 313 314 316 316 317 319 318 318 323 327 326 327 331 331 328 325 324 326 336 345 342 341 343 342 342 346 346 346 347 347 346 345 345 346 346 347 348 348 349 351 352 352 352 355 359 359 360 364 366 365 365 366 367 367 367 366 365 365 364 363 361 360 360 361 361 362 363 365 368 370 368 370 374 375 375 375 375 374 373 372 371 371 371 370 368
313 313 313 315 315 316 319 317 317 325 329 325 326 332 331 332 335 333 336 341 341 339 343 343 342 345 346 345 346 347 345 343 343 345 346 346 347 348 348 349 351 353 354 352 355 359 358 358 363 364 362 363 364 366 370 371 368 366 365 365 364 362 359 360 362 362 363 363 363 366 370 371 371 374 375 375 376 375 374 373 373 371 372 371 371 370
315 314 313 313 314 315 317 317 320 328 330 326 328 333 332 335 337 336 336 337 337 338 341 341 342 344 344 343 344 343 342 343 344 346 346 346 347 348 348 351 352 353 354 353 355 358 357 358 362 363 362 364 364 363 368 373 373 367 363 364 364 361 358 360 364 363 364 365 364 364 368 372 373 373 375 375 376 376 375 374 373 373 372 372 371 372
318 317 316 315 314 315 317 319 322 326 326 324 326 329 329 330 331 329 331 333 335 335 336 339 341 341 341 343 343 341 342 344 344 344 345 346 347 347 349 350 351 352 353 353 355 356 356 358 362 362 361 363 363 363 367 372 373 367 366 370 371 367 363 361 363 365 366 366 366 365 367 371 374 374 374 375 375 375 376 374 373 373 373 372 372 372
317 318 318 319 319 318 318 320 321 322 323 322 323 323 324 324 324 324 327 330 331 332 334 337 338 338 339 341 342 342 343 343 343 343 345 345 346 348 349 349 350 352 353 353 355 357 356 358 360 359 359 360 361 362 365 368 371 372 373 373 372 372 371 367 364 367 368 367 369 368 367 370 373 373 374 374 375 375 376 374 373 373 373 373 373 372
315 316 316 318 319 319 318 320 321 321 322 322 320 320 322 322 322 323 326 328 329 329 330 332 334 336 337 339 341 343 343 343 343 344 344 345 346 347 348 349 350 352 352 353 355 356 355 357 359 357 357 359 359 361 362 364 367 369 369 369 369 371 372 370 368 369 368 368 369 369 368 369 371 372 373 372 372 373 374 373 373 373 373 374 373 372
313 314 314 315 317 317 318 319 320 320 321 321 319 319 320 321 321 323 325 326 326 326 326 328 330 331 334 336 338 340 342 343 344 345 345 345 346 347 348 348 350 352 353 354 355 355 355 358 358 357 357 358 359 360 361 362 363 364 365 366 367 368 370 371 370 370 371 371 370 370 370 369 370 372 372 371 371 372 372 372 372 372 372 372 371 371
314 314 314 314 315 316 317 319 318 317 318 319 318 318 318 319 321 323 323 323 323 324 325 326 326 327 329 332 334 336 338 341 343 345 345 344 345 347 348 348 351 353 353 354 354 354 355 356 357 357 357 358 358 358 359 361 362 362 363 364 365 365 367 369 368 369 369 369 369 370 370 369 369 371 370 371 371 370 370 371 370 370 370 370 369 369
314 314 314 314 315 316 316 316 316 316 316 317 317 317 318 319 321 322 322 321 322 323 323 324 324 325 326 328 331 334 336 338 341 344 345 344 345 347 347 349 351 352 353 353 354 353 353 354 355 356 356 356 356 357 357 358 359 359 361 363 364 365 366 366 367 367 367 367 367 368 368 368 368 368 368 370 370 368 368 368 367 368 368 367 367 366
313 313 314 314 314 315 315 316 316 317 316 316 317 317 318 319 320 320 321 321 321 322 322 322 323 324 324 325 327 330 334 337 339 341 344 346 347 347 347 348 351 353 353 353 351 351 351 352 353 354 353 354 356 356 357 357 357 358 359 361 364 366 366 366 366 367 367 367 367 367 367 367 368 367 366 368 369 368 368 367 367 367 367 364 363 363
313 313 313 313 314 314 315 315 317 317 316 317 317 317 317 318 318 319 320 320 321 321 321 322 322 324 325 324 324 327 331 334 335 338 342 345 347 347 347 348 350 352 353 352 351 352 351 350 351 352 351 353 355 355 355 355 354 354 356 358 361 363 364 366 368 369 369 368 365 365 366 367 368 368 366 366 367 368 367 368 365 363 362 361 360 359
Wind_Speed
12 10 13 14 15 17 20 20 19 18 17 17 14 13 14 13 12 14 16 13 14 12 13 15 15 16 15 14 16 16 15 15 16 20 15 13 12 13 15 14 14 14 13 17 21 24 25 25 26 26 26 28 28 27 28 30 31 29 28 29 27 27 29 27 25 24 23 22 20 19 18 17 17 17 16 16 15 14 14 14 15 15 14 14 14 14
12 13 16 19 19 20 21 21 20 19 20 19 15 12 13 13 12 14 17 14 14 10 11 15 16 17 16 15 15 16 17 17 16 18 17 17 16 14 16 17 16 13 12 17 19 21 25 25 26 26 26 28 28 29 29 30 32 31 29 29 29 28 30 30 28 26 24 23 21 20 19 17 17 17 17 16 15 14 14 15 16 16 15 14 15 15
13 16 19 21 19 19 19 20 21 21 20 17 14 12 11 11 11 14 18 13 13 9 9 15 16 16 15 15 15 16 16 15 15 17 15 20 20 17 17 17 17 16 14 17 18 19 24 25 26 25 25 28 29 29 29 29 31 31 28 29 30 29 29 30 29 28 26 23 22 20 19 18 16 17 17 16 15 14 13 15 16 17 17 16 16 15
13 15 19 20 18 20 21 20 22 20 16 14 13 12 10 11 11 10 15 14 13 10 10 13 14 13 13 14 15 16 16 15 16 17 14 17 20 19 20 18 18 19 17 17 18 19 21 24 26 25 25 27 28 29 30 30 31 31 29 29 32 30 29 30 29 28 26 23 22 19 18 18 16 16 17 16 15 15 14 15 17 17 17 17 17 16
15 14 16 20 20 21 21 20 21 16 13 15 16 15 11 12 14 10 11 14 14 13 12 11 10 10 12 15 15 14 16 17 17 18 15 14 16 19 21 19 18 19 18 19 20 19 20 21 24 26 26 27 29 29 31 32 31 32 31 30 32 31 29 30 30 28 26 24 22 20 18 19 18 16 18 18 17 17 17 17 18 19 18 18 17 17
18 15 15 21 22 22 21 19 20 16 11 14 17 19 17 14 15 15 13 13 12 12 13 11 9 8 11 16 15 13 15 17 15 16 17 13 11 17 20 18 18 18 18 18 19 19 19 19 20 24 26 28 30 31 32 33 32 32 32 31 32 32 29 30 31 30 28 25 24 23 20 20 19 18 19 21 19 18 19 18 18 20 20 19 18 18
14 18 17 19 21 23 21 17 19 18 12 11 14 19 21 17 16 17 16 13 9 9 13 15 11 8 9 14 15 14 16 17 13 14 18 14 11 16 17 16 17 17 17 17 17 19 19 20 21 24 29 30 31 32 32 33 32 32 33 32 32 33 30 29 31 32 30 27 25 25 23 21 21 20 19 20 20 18 19 19 18 20 21 20 19 19
14 20 20 20 20 19 18 15 18 20 13 10 12 17 20 19 17 17 16 13 9 8 11 17 14 8 7 11 15 18 19 18 16 16 17 16 14 17 18 16 16 17 17 17 18 19 19 21 23 26 31 33 32 33 32 33 33 34 35 35 33 33 32 30 31 33 32 28 27 26 24 22 22 22 19 19 20 18 18 19 19 20 21 22 21 20
16 21 22 21 18 14 15 16 18 20 15 11 13 15 17 20 18 16 14 11 10 9 10 15 16 10 8 9 13 18 21 20 20 18 17 17 16 18 20 18 18 18 18 18 19 18 16 19 26 30 33 34 33 33 34 34 35 35 36 36 35 34 33 32 32 34 33 30 29 27 25 23 22 22 21 19 19 19 19 19 20 20 22 23 23 22
15 18 21 20 16 13 15 17 18 19 15 13 15 14 13 17 18 16 13 10 10 10 11 14 15 10 7 8 12 15 18 18 17 15 14 18 17 17 19 19 18 16 16 18 19 18 15 16 23 28 30 32 32 33 35 35 35 35 36 37 36 34 34 34 33 35 35 32 30 29 27 25 23 22 21 20 20 21 20 20 21 22 22 24 25 23
15 16 18 17 14 13 15 17 18 19 16 14 14 13 10 11 12 12 11 9 9 10 12 14 13 11 9 8 11 12 14 16 15 14 15 18 18 16 17 18 18 16 14 17 19 18 17 17 20 23 25 28 31 32 33 33 34 35 35 37 38 36 35 35 35 35 36 34 31 30 29 27 25 23 22 22 21 22 23 21 20 22 22 22 24 23
19 16 14 14 16 15 15 15 17 18 17 14 11 11 9 8 8 9 9 10 11 10 12 15 16 15 12 8 9 10 14 16 15 16 17 19 17 15 15 17 18 17 15 16 16 16 18 18 18 21 24 28 31 32 33 34 34 35 36 38 39 37 36 36 36 36 36 35 32 31 30 29 27 25 24 23 22 23 24 23 20 21 21 21 21 22
17 17 15 16 18 18 15 13 14 16 16 13 11 11 10 8 8 8 8 10 11 10 11 16 18 16 12 10 12 11 12 15 16 16 16 19 19 16 16 16 16 17 17 16 15 14 15 14 12 15 22 29 33 33 35 36 36 36 37 40 40 39 38 37 37 37 36 36 34 32 31 30 29 27 26 25 24 23 23 23 22 21 22 22 21 22
13 16 19 18 16 18 18 13 11 13 14 14 12 11 10 8 8 9 9 8 10 10 12 17 16 14 12 11 15 16 13 14 16 16 15 18 20 17 18 17 17 19 18 16 15 14 14 14 13 15 22 30 33 34 37 37 37 37 37 40 42 41 41 39 38 38 38 37 36 34 32 31 30 29 27 26 25 24 23 23 24 23 23 24 24 23
13 13 18 19 13 16 21 16 13 13 13 14 13 11 11 9 8 8 8 8 9 9 13 16 13 11 11 9 13 18 17 15 14 15 17 16 17 18 19 19 18 20 18 15 15 16 15 14 15 18 25 30 33 34 36 36 36 36 37 40 42 42 42 40 38 39 38 38 36 35 33 32 31 31 29 28 27 27 26 24 24 25 24 24 25 25
16 12 16 20 15 18 22 18 16 15 13 12 12 12 11 10 9 7 8 10 9 8 10 12 10 9 9 8 12 17 18 19 17 15 17 17 19 20 18 19 18 18 18 16 15 15 14 13 12 14 20 28 33 34 34 35 35 36 36 39 42 42 43 42 40 40 39 38 37 36 35 34 32 32 30 30 29 29 28 27 25 26 26 25 24 25
14 11 16 21 20 20 21 19 19 15 10 10 12 13 12 12 11 7 8 11 10 9 8 8 10 10 9 9 12 15 16 20 20 18 17 16 21 22 19 19 18 17 19 19 17 16 16 13 13 16 23 30 35 35 36 37 37 37 36 37 39 40 41 43 42 41 40 39 39 38 38 36 34 33 32 32 31 30 30 29 28 27 27 26 24 24
11 10 15 23 23 21 20 21 22 18 12 10 11 13 11 12 12 8 6 7 9 9 7 10 13 11 10 8 10 15 16 16 18 20 19 15 18 21 20 20 19 18 18 20 20 19 20 19 19 26 33 37 39 37 36 36 35 36 35 36 38 38 39 41 41 41 41 41 40 39 40 39 37 35 33 32 32 32 31 30 29 28 26 27 26 24
11 9 13 22 24 19 18 19 19 19 18 13 11 13 11 10 10 8 7 6 8 8 6 10 13 11 11 9 10 16 17 14 16 19 20 18 16 18 21 22 20 18 16 18 20 17 18 18 20 27 34 37 37 37 35 35 34 34 34 35 37 38 38 39 39 39 40 40 39 38 40 41 39 37 35 33 32 33 32 31 30 30 27 27 27 27
10 9 9 18 24 20 15 15 14 15 18 16 12 13 11 8 8 9 7 6 6 6 6 8 9 8 8 10 11 14 16 15 15 14 17 19 17 15 19 21 19 17 14 16 18 17 18 19 21 28 32 32 33 34 34 35 36 35 35 35 36 37 37 37 37 37 37 38 37 38 40 41 40 38 36 34 33 33 33 32 31 31 30 28 27 28
11 9 8 12 21 20 13 13 16 15 16 14 12 12 11 9 8 8 8 8 7 5 5 7 7 7 7 9 13 13 14 15 14 12 14 17 17 14 17 19 18 16 14 15 17 18 20 20 21 25 27 26 27 31 33 34 36 36 35 35 36 37 37 37 37 36 37 37 37 38 39 39 39 39 36 35 34 33 33 33 33 32 31 30 29 28
10 8 9 10 14 17 15 16 20 20 19 15 12 11 12 11 9 9 9 9 8 6 5 5 5 5 4 6 11 12 13 14 13 12 12 15 17 15 15 17 19 17 15 16 18 18 18 17 16 18 20 19 22 29 33 34 34 36 36 36 36 36 37 37 36 36 37 37 37 37 37 37 38 39 38 36 35 35 33 33 34 33 31 30 31 30
11 7 10 10 9 13 19 20 20 22 22 19 15 12 12 12 11 9 8 8 9 9 7 7 5 2 3 2 5 7 10 14 12 10 10 13 15 16 18 18 20 21 18 18 19 18 16 15 14 16 19 21 26 30 32 33 34 36 36 36 36 36 37 37 36 36 37 37 36 36 37 36 36 38 38 36 35 35 34 33 33 34 32 31 30 31
9 8 9 8 9 9 18 20 19 21 20 17 16 15 13 13 13 11 8 7 8 10 9 7 5 2 5 4 4 5 5 11 13 11 12 12 12 12 17 17 17 20 18 18 17 14 14 15 13 13 15 19 26 28 30 32 33 34 35 35 36 36 37 37 36 36 36 36 34 35 36 36 35 36 36 36 34 34 34 32 32 32 33 32 30 30
4 7 9 7 7 9 16 16 15 18 17 13 14 17 17 17 18 14 9 8 7 10 12 8 5 4 7 5 4 5 3 8 12 12 13 14 11 9 10 9 13 18 16 14 14 13 15 15 13 12 12 14 21 25 27 30 31 32 34 35 34 35 35 36 36 35 35 35 35 35 36 36 35 35 35 35 34 33 34 32 31 31 32 33 31 30
5 6 7 7 9 11 13 12 12 14 13 11 14 21 22 21 20 15 9 8 7 8 11 9 5 6 9 5 4 6 8 8 10 12 11 11 7 2 8 7 8 14 14 13 13 14 16 15 13 13 11 12 19 23 24 27 30 31 32 33 33 33 34 35 35 34 34 35 35 35 36 36 36 35 35 36 34 33 34 33 31 31 31 33 33 32
6 7 9 11 11 7 4 3 5 10 14 16 18 22 24 23 21 15 9 8 7 8 9 7 4 9 11 8 8 9 9 8 11 12 9 10 11 10 11 9 8 10 11 11 10 11 13 12 12 14 12 13 20 24 23 26 30 29 29 31 32 31 32 34 34 34 34 34 34 35 35 36 37 37 36 36 36 35 34 34 33 32 32 32 33 33
5 8 12 15 15 10 4 2 5 4 10 19 23 23 24 25 23 17 13 10 8 7 8 7 7 10 10 10 10 8 7 9 12 13 12 13 12 11 10 10 12 12 9 9 10 10 10 9 9 12 13 14 20 23 23 25 29 28 27 29 31 31 31 32 33 34 34 34 34 35 36 36 38 39 39 38 38 37 35 35 35 34 33 33 33 33
5 8 12 15 16 15 14 9 6 7 7 9 19 24 23 25 26 21 16 14 11 6 7 8 6 7 9 11 14 10 7 8 10 11 13 13 9 9 11 12 14 13 10 8 8 8 8 7 7 9 11 13 17 20 21 23 25 26 26 27 30 31 31 31 33 34 34 35 35 35 37 37 37 39 40 39 38 39 38 37 36 35 34 34 34 34
3 6 10 14 16 16 16 14 9 7 11 11 13 23 24 22 25 23 18 17 14 9 9 9 5 6 10 11 13 12 8 11 13 12 13 12 9 8 9 11 13 14 14 11 8 7 6 6 7 8 9 9 11 16 19 20 21 24 26 26 28 30 30 30 32 34 34 34 36 35 35 36 36 36 38 39 39 39 39 38 36 36 36 35 35 34
5 5 9 10 11 13 16 17 13 9 10 12 14 18 23 22 24 24 19 18 15 10 12 13 8 6 9 9 9 11 11 12 13 12 12 10 9 8 7 6 7 10 15 14 10 9 7 6 6 6 8 8 9 13 17 18 19 22 25 26 27 28 29 28 29 33 34 33 33 34 35 36 36 35 37 38 38 38 39 39 37 36 36 36 35 35
7 5 7 7 7 9 12 17 16 8 7 12 15 15 16 17 19 20 17 16 15 13 14 13 11 8 8 10 11 12 12 12 11 11 9 6 6 6 4 6 9 5 7 10 9 10 10 10 9 8 9 11 12 14 16 17 19 21 23 25 26 27 28 29 28 30 33 32 31 33 35 35 35 35 35 37 37 37 38 39 38 37 36 37 36 35
8 6 5 6 7 9 11 15 14 7 4 10 13 10 7 10 15 19 20 18 16 15 12 9 10 9 9 10 9 9 10 9 7 7 6 5 5 6 4 4 4 1 2 5 7 10 11 11 12 12 12 13 15 16 17 18 19 20 21 22 24 26 28 29 28 28 32 33 32 33 35 34 34 35 34 35 37 37 36 37 38 38 37 36 36 35
10 9 5 5 6 9 12 14 13 10 8 8 8 7 8 11 10 11 16 20 19 16 12 10 11 8 10 10 7 5 5 6 7 8 7 5 5 4 3 2 2 1 2 3 2 5 6 5 8 10 9 12 16 18 20 21 20 20 21 21 22 25 26 28 28 26 29 34 33 32 34 34 34 34 34 34 35 36 36 36 37 37 36 34 34 35
10 9 6 6 6 7 9 10 12 11 9 5 4 10 13 8 6 10 12 21 23 17 11 11 13 10 7 6 5 4 3 5 8 8 7 6 5 4 2 1 2 2 2 3 2 5 8 7 5 4 3 2 2 5 12 19 21 20 21 21 21 23 24 26 27 26 25 31 34 32 33 34 33 32 33 32 33 34 35 35 35 34 33 32 33 35
9 8 6 6 6 6 7 11 11 7 8 9 9 14 14 6 5 11 8 8 12 9 8 8 10 10 7 4 4 5 5 6 8 6 4 3 1 2 3 2 3 5 2 4 8 9 8 8 7 6 6 7 6 6 5 11 16 18 20 21 21 23 23 23 26 26 25 28 32 32 31 32 32 31 31 31 31 33 33 33 33 32 32 32 31 32
8 7 5 6 7 5 5 9 9 4 8 11 10 13 11 6 5 8 3 1 1 5 9 6 6 7 8 7 6 7 5 4 5 4 1 2 3 5 5 5 10 13 11 11 11 11 11 10 9 8 7 7 6 6 8 8 11 13 17 21 21 21 22 22 24 26 25 25 29 31 31 31 31 30 30 30 30 31 32 31 31 31 31 31 29 29
8 7 6 7 6 5 5 6 9 9 9 8 9 12 8 4 4 6 1 4 3 3 2 6 6 4 3 7 7 8 6 3 3 3 3 5 8 11 12 12 13 12 11 11 11 12 13 11 8 8 7 8 7 8 9 10 11 11 8 16 22 21 21 22 23 24 24 24 26 30 30 30 30 29 29 30 29 28 29 29 29 29 30 30 29 28
10 7 6 6 6 7 6 5 7 9 6 3 11 15 8 3 3 5 4 4 7 14 10 5 5 8 5 2 5 6 4 4 3 3 8 10 10 11 12 11 12 10 9 10 11 11 10 7 5 6 6 5 6 7 7 8 10 12 10 8 15 20 21 21 22 23 23 22 23 27 29 29 30 29 28 29 28 26 27 28 27 27 28 28 28 28
9 6 6 7 6 7 7 6 5 4 2 12 11 10 10 9 8 8 6 2 11 16 16 13 3 8 5 5 5 3 3 3 2 5 9 11 10 11 10 9 10 10 9 10 11 10 8 5 4 4 5 7 9 9 8 8 8 9 10 11 10 15 19 21 21 22 23 22 22 25 28 28 28 28 27 27 27 26 26 26 26 25 26 26 27 27
6 6 5 7 8 7 7 8 5 4 5 17 15 7 3 7 13 9 4 2 9 12 13 15 10 10 10 8 5 2 2 5 8 8 10 11 10 10 10 8 9 9 8 10 10 8 7 7 7 7 7 8 9 9 8 7 8 8 9 10 11 11 13 17 21 22 23 24 22 23 26 27 27 27 26 25 25 25 24 25 25 26 26 25 25 26
5 6 5 6 8 7 5 7 6 4 7 16 15 17 17 4 7 3 2 4 7 11 14 14 13 14 12 8 6 6 8 10 12 10 11 12 10 10 9 9 9 9 8 9 8 7 8 7 7 7 8 8 8 9 10 8 7 7 8 9 8 9 9 10 18 23 23 23 23 22 23 25 25 25 25 24 24 24 24 24 24 25 25 25 25 25
3 4 6 6 6 7 7 7 5 2 6 15 14 13 13 7 2 1 5 7 7 11 12 12 13 13 11 9 9 9 9 11 12 12 12 11 9 10 9 9 10 9 9 9 8 8 9 7 6 6 6 7 9 9 10 12 10 5 6 7 6 7 8 7 12 20 21 21 22 21 21 23 24 23 23 23 24 24 24 24 23 24 24 25 24 23
1 2 3 4 4 5 6 4 1 1 5 11 12 8 8 7 4 3 5 6 8 9 9 9 11 12 11 10 8 8 8 10 11 11 12 11 10 11 10 9 10 9 9 10 9 9 9 5 4 6 6 7 9 7 9 13 10 1 1 4 6 2 5 7 7 16 18 17 19 19 18 19 22 23 22 22 22 23 22 23 23 23 23 23 23 21
3 3 2 2 3 5 5 3 3 5 5 8 11 8 7 7 6 6 7 6 7 8 8 8 9 11 12 12 10 8 8 9 10 10 11 11 11 11 10 10 10 9 9 10 9 10 10 6 5 6 6 7 8 6 8 12 9 7 7 8 9 8 7 6 4 11 16 15 15 17 17 16 19 21 21 20 21 21 20 20 20 20 20 20 20 19
6 6 5 4 5 7 6 4 5 6 5 6 7 8 8 7 7 8 8 6 6 8 8 8 9 10 10 10 11 9 9 9 9 9 10 11 11 11 10 10 10 10 9 10 9 10 10 9 6 7 7 8 9 7 6 9 9 9 8 6 6 7 8 7 2 5 11 12 11 13 14 14 15 18 19 19 18 19 18 18 19 18 17 17 17 17
6 6 6 6 5 6 5 2 2 6 7 4 5 7 8 8 7 8 7 6 6 7 8 8 9 9 9 9 9 10 11 11 9 8 9 9 9 10 10 9 9 10 9 9 8 8 8 7 6 6 5 7 9 9 7 6 8 6 4 4 4 3 4 5 3 3 7 8 8 10 11 12 12 14 17 16 15 15 16 16 16 16 15 15 15 15
4 6 7 8 7 7 8 8 7 10 12 10 7 7 8 9 8 7 7 7 7 7 8 8 8 8 9 9 9 10 11 12 11 9 8 8 8 8 9 8 8 9 9 7 6 6 7 7 5 5 5 6 6 8 7 5 5 4 3 3 2 0 0 1 2 3 5 7 7 8 10 11 11 13 15 15 14 14 15 17 16 16 16 16 16 16
5 5 6 8 8 8 10 11 10 10 11 11 9 8 8 8 8 6 6 8 9 9 10 10 9 8 8 9 9 10 10 11 12 11 9 8 7 7 7 7 9 10 9 6 4 4 5 6 5 4 5 4 4 4 4 3 3 3 3 2 1 1 2 4 5 5 7 8 8 10 11 11 12 12 13 14 16 15 14 15 15 15 14 12 13 14
7 7 6 6 7 7 8 9 8 8 8 8 8 8 7 8 9 9 9 9 10 11 11 12 11 10 9 9 9 9 9 9 12 14 12 8 6 6 6 6 8 10 8 5 3 2 2 2 3 3 3 3 5 4 2 2 3 4 5 5 3 2 4 6 6 6 7 5 4 7 11 10 11 15 14 12 14 16 16 14 13 11 8 6 5 4
6 7 7 7 8 8 10 11 9 8 8 9 10 10 8 8 10 12 12 11 10 10 11 13 13 13 12 11 10 10 10 9 11 14 14 11 8 6 6 6 6 8 8 5 3 1 2 2 1 1 0 4 6 4 2 2 4 5 5 6 5 5 4 3 5 5 8 9 11 11 9 6 6 10 9 4 6 6 7 9 9 7 6 7 6 4
Wind_Direction
210 212 211 216 214 212 215 218 223 225 232 239 228 220 220 221 230 229 232 215 189 202 209 209 215 216 212 196 188 186 202 212 172 167 181 175 179 183 183 182 179 189 185 180 186 186 187 185 183 182 183 184 181 181 182 177 181 187 183 180 181 179 178 178 178 180 182 184 185 187 190 192 195 198 200 203 200 197 198 194 193 194 189 191 198 197
209 222 218 216 216 216 216 217 223 225 229 241 244 233 224 221 225 231 236 210 181 202 206 206 221 220 214 205 197 185 192 210 190 176 175 169 182 192 184 183 181 184 182 182 185 186 188 187 185 182 183 185 180 181 183 178 181 187 183 178 180 182 180 180 181 182 184 186 186 187 189 191 193 196 198 201 202 199 197 194 193 195 192 193 199 199
209 227 222 214 216 220 220 216 219 226 227 233 244 246 236 222 216 229 239 212 176 204 206 199 219 226 217 211 208 195 191 206 204 200 184 166 178 188 183 182 179 180 179 181 184 184 187 187 185 183 183 186 184 182 184 182 181 185 185 178 179 184 184 183 183 184 187 188 188 189 189 191 191 194 197 199 200 201 198 194 196 197 195 197 200 200
208 225 220 215 214 218 223 218 215 222 227 228 233 239 243 233 221 220 231 213 187 210 215 199 214 227 220 219 220 210 206 213 208 211 202 178 180 180 178 178 176 179 176 179 185 184 186 187 186 185 186 187 185 182 184 184 182 184 187 180 178 184 185 185 185 184 188 190 190 191 191 193 194 192 194 198 200 202 201 197 197 198 198 199 201 202
219 217 209 214 216 216 220 220 216 216 222 226 228 233 238 237 238 238 229 211 194 205 215 209 216 221 217 220 221 213 216 220 210 206 206 199 186 168 169 178 178 176 173 179 186 185 185 185 185 184 185 188 187 184 185 186 184 184 187 182 179 183 184 183 185 186 187 189 190 192 192 194 198 193 189 195 200 199 201 201 198 199 200 200 201 204
225 219 204 208 215 217 218 219 217 215 218 224 225 231 236 234 238 246 243 223 201 199 204 211 230 224 211 220 221 212 218 222 211 198 194 199 181 159 166 178 178 176 174 179 184 184 185 181 183 183 184 190 190 188 187 186 186 184 185 183 179 183 184 182 185 186 186 188 189 192 193 192 195 195 188 192 198 197 198 202 201 198 198 201 202 204
225 223 213 208 210 214 218 220 217 215 219 224 218 223 234 239 237 239 244 238 218 205 197 199 223 234 210 218 222 217 222 222 218 205 189 188 178 160 168 175 174 176 175 179 184 184 184 181 184 186 186 193 193 189 186 185 186 184 183 184 180 182 185 182 184 185 185 187 188 191 195 193 193 195 194 195 198 199 198 201 203 197 195 201 203 203
216 220 219 211 208 211 216 218 214 213 219 226 215 213 223 235 239 239 243 244 230 222 208 197 205 230 224 216 217 217 222 219 219 216 186 178 182 165 164 171 174 180 177 178 187 187 185 184 187 188 188 194 195 189 186 185 186 185 183 184 182 182 186 184 184 185 185 187 188 191 194 196 196 196 199 197 198 202 201 200 203 198 195 200 203 203
209 216 220 214 209 210 214 214 211 212 217 225 221 214 214 222 232 240 245 251 245 238 227 204 200 219 229 212 209 214 221 219 219 220 190 176 184 167 163 175 178 181 178 178 186 185 184 188 189 189 188 192 194 189 187 186 185 184 183 183 183 183 186 186 185 185 186 188 189 191 193 196 197 197 199 197 197 201 201 201 202 200 198 199 202 203
210 213 219 220 216 212 213 212 210 214 216 216 225 227 216 213 219 230 239 249 253 248 242 223 209 223 237 211 207 210 218 220 218 224 200 180 186 174 168 178 178 176 177 181 187 184 186 192 190 190 188 190 195 192 188 187 184 182 181 181 183 184 185 187 187 186 187 189 190 192 194 195 196 196 197 196 196 198 201 205 203 201 200 197 199 202
224 208 211 224 223 210 212 213 207 213 215 206 219 231 222 213 211 217 228 237 246 243 243 239 224 229 245 226 215 207 209 214 209 217 208 184 185 182 170 172 174 175 179 184 189 184 187 192 191 192 190 193 200 195 189 187 184 181 180 180 183 185 186 187 188 187 188 190 192 193 194 195 195 195 195 195 195 195 200 207 203 201 202 197 196 200
232 218 203 214 224 213 208 214 205 205 211 204 208 219 215 212 208 210 212 215 233 233 226 232 229 232 241 235 227 210 202 211 211 216 204 179 182 186 174 172 172 175 180 183 188 185 181 182 183 188 187 194 204 197 189 189 185 182 181 181 183 185 186 187 188 188 188 190 193 194 195 197 196 195 195 196 197 195 198 204 204 202 204 203 198 196
226 229 214 201 214 216 207 208 202 195 202 204 202 207 210 200 194 208 207 206 227 232 220 222 225 233 243 239 239 230 204 206 216 219 196 179 191 191 173 176 171 170 180 183 186 184 178 175 177 185 186 193 201 196 189 189 185 182 182 181 183 185 186 187 188 189 189 191 194 195 196 197 197 197 198 199 200 198 198 201 204 204 203 205 202 198
211 225 224 206 199 210 210 203 197 192 193 200 200 199 206 198 187 201 209 213 223 225 223 222 221 231 242 235 233 237 227 213 211 211 197 188 195 183 168 179 176 170 178 181 181 182 180 179 181 190 194 196 200 196 190 189 185 183 183 182 183 185 186 187 187 189 190 192 195 196 197 198 198 198 199 201 202 202 201 201 203 206 204 203 205 204
209 212 218 213 193 195 209 210 201 192 189 199 202 203 209 203 195 200 206 217 223 218 217 217 219 228 233 224 221 228 232 231 222 208 201 192 181 173 172 183 182 173 175 180 181 182 183 182 182 194 200 197 197 196 192 190 187 184 183 183 183 184 186 187 187 189 190 192 195 196 198 199 200 200 202 204 205 205 206 205 204 206 207 205 207 208
217 215 206 214 207 192 201 209 207 197 191 195 197 206 213 203 202 211 214 218 223 224 211 210 220 229 235 231 221 222 220 223 230 223 212 192 172 173 178 183 186 176 171 177 181 180 180 175 174 195 208 201 196 197 195 192 188 185 184 184 184 185 185 187 188 189 191 193 194 196 198 199 201 202 203 205 207 208 208 208 207 208 209 208 208 209
217 217 197 204 212 203 194 199 208 207 193 186 196 209 209 203 212 226 224 217 219 227 217 209 219 221 233 235 219 221 220 214 215 221 226 203 174 175 176 179 189 182 172 175 178 180 183 180 176 194 211 208 199 197 196 193 190 186 184 184 185 185 185 186 188 189 190 192 193 196 198 200 201 201 202 205 207 208 209 209 210 210 210 211 210 209
218 222 198 197 205 202 189 193 211 218 207 187 194 206 202 204 219 234 239 221 214 226 221 214 220 212 214 224 211 214 220 218 209 206 222 217 182 176 174 175 185 186 178 171 169 176 183 184 184 192 204 206 199 197 196 192 190 187 185 184 184 185 186 186 187 188 190 191 193 196 198 200 201 201 203 205 207 208 208 209 210 211 211 211 211 209
221 228 204 197 198 191 181 190 209 217 219 214 196 194 200 205 207 215 237 231 217 226 221 218 226 216 203 206 209 208 207 219 220 201 206 217 203 184 176 172 178 186 183 166 164 173 178 180 186 192 200 202 196 196 196 191 189 188 186 186 186 186 186 186 187 189 190 190 191 194 198 200 201 202 203 205 207 207 208 209 209 210 210 210 210 211
231 238 213 194 190 184 178 192 205 205 213 223 209 193 202 213 204 203 218 232 229 224 217 224 231 229 212 193 198 205 194 203 226 209 195 209 213 189 169 168 177 185 179 163 165 173 176 182 189 192 197 201 198 195 195 193 191 190 189 187 188 188 187 188 188 189 190 190 190 193 197 200 200 202 204 205 206 207 207 209 208 209 210 209 209 210
233 244 240 200 187 186 186 194 199 197 199 211 213 199 195 203 208 205 208 222 237 232 214 221 227 232 226 189 188 200 185 185 216 220 193 200 209 187 168 172 177 179 178 170 169 173 178 184 188 189 190 197 204 200 195 196 194 192 192 190 189 190 189 189 189 189 191 192 193 195 196 198 199 200 202 204 206 207 207 208 209 209 209 209 209 209
224 230 239 227 196 192 195 193 197 201 199 200 209 206 194 194 201 205 206 207 221 242 237 230 236 239 226 182 183 189 171 170 204 216 190 194 203 188 178 179 169 171 185 180 171 171 175 179 180 178 174 186 210 207 198 198 196 193 194 192 191 191 190 191 191 190 192 193 195 196 195 196 197 199 201 202 205 206 207 208 208 208 208 209 210 209
224 230 233 241 235 205 192 188 194 205 206 202 208 213 202 196 200 207 207 194 204 225 237 247 257 308 30 88 147 149 153 165 188 204 179 191 210 193 185 186 169 172 186 177 169 170 168 168 172 168 165 183 210 210 199 198 199 196 196 194 193 193 192 192 192 191 193 195 196 197 196 196 197 198 200 201 203 205 205 207 208 208 208 209 209 210
224 237 234 249 281 230 190 185 193 205 209 205 205 212 212 201 198 208 211 195 201 209 213 238 237 156 58 51 88 82 130 162 171 189 177 184 222 202 182 188 173 166 177 175 167 161 154 158 168 169 171 188 205 204 195 198 200 198 197 196 195 195 192 192 193 192 192 195 196 195 196 197 196 197 198 198 201 203 203 205 207 207 209 209 209 209
258 240 224 231 264 221 187 183 189 199 211 214 200 204 216 211 197 203 214 202 204 207 203 216 220 149 93 77 92 95 179 184 168 182 179 175 212 214 166 168 159 152 163 170 155 140 145 157 168 175 184 194 199 196 193 197 201 199 199 199 197 196 193 192 193 193 191 192 195 195 196 197 196 196 197 198 200 202 203 204 205 205 207 208 208 207
298 262 234 222 227 209 188 191 195 191 200 218 206 197 209 217 203 195 209 209 199 195 200 213 211 139 117 116 138 153 200 205 160 167 177 160 165 116 83 94 130 144 155 163 155 149 155 165 174 178 184 189 192 195 193 195 201 202 201 201 200 197 195 194 194 193 191 191 193 195 196 196 197 198 198 200 202 203 204 204 204 204 204 205 207 207
296 279 265 240 232 222 162 159 205 198 194 209 213 198 199 214 212 198 201 211 194 178 195 215 179 136 140 163 172 167 182 178 149 157 154 113 95 76 74 80 99 126 143 147 143 146 152 161 172 178 182 185 189 195 196 195 200 204 201 200 202 200 197 196 194 193 192 192 194 196 196 197 199 200 201 202 204 205 205 205 205 204 204 205 206 207
292 272 265 246 243 246 227 25 354 284 215 207 211 205 196 203 212 208 202 197 188 182 188 188 162 154 163 162 145 144 164 159 158 158 129 98 93 97 97 96 101 112 124 125 120 129 148 162 171 178 183 185 188 193 198 199 200 203 202 199 201 203 201 197 195 194 192 192 195 197 197 199 200 201 203 204 205 206 206 207 207 207 206 205 205 207
295 274 272 250 246 248 241 253 304 317 300 239 217 211 198 198 206 211 209 193 185 199 184 162 156 157 150 140 137 147 154 132 130 124 101 85 86 115 130 125 118 118 119 122 128 138 159 171 168 172 177 180 185 192 199 202 199 200 202 199 200 204 204 199 195 195 194 193 195 197 198 199 201 202 203 204 205 206 207 208 209 208 207 207 206 207
317 283 281 258 248 251 251 254 256 276 307 306 249 215 200 197 203 207 214 201 188 204 191 158 143 144 140 142 151 150 123 99 101 92 78 72 71 97 131 132 131 140 140 134 145 155 157 152 143 150 163 174 185 192 199 203 198 197 201 202 201 204 206 202 196 195 196 195 195 197 197 199 201 202 203 204 205 206 207 208 209 209 209 209 208 207
330 279 276 267 256 257 256 249 239 244 272 297 286 233 204 198 200 202 212 208 190 198 197 170 158 159 141 122 112 103 81 78 90 85 74 79 85 93 114 105 98 137 142 138 149 158 151 142 134 143 164 180 196 197 198 202 199 199 203 204 204 204 206 207 199 194 198 199 196 195 196 198 201 202 203 205 206 206 207 207 208 209 210 209 210 208
320 283 266 264 256 258 257 239 224 227 267 281 282 252 213 204 204 197 203 212 197 190 194 180 169 164 128 110 107 96 82 78 82 80 74 77 80 79 82 58 47 70 128 126 130 140 147 156 160 168 180 190 203 206 201 200 201 203 206 206 204 203 206 209 205 196 197 200 197 195 197 198 199 201 203 204 206 206 207 207 208 209 210 210 210 209
325 324 292 275 260 250 255 244 225 209 257 265 259 242 230 247 229 199 194 209 207 195 193 186 177 158 107 109 128 111 98 105 104 92 84 72 67 67 61 63 68 128 145 99 116 139 153 168 172 177 187 189 195 204 205 204 204 205 209 208 205 203 205 209 209 201 195 198 198 195 196 198 199 201 203 203 205 207 207 207 208 209 209 210 210 209
331 333 310 299 284 253 254 255 235 210 213 241 241 227 247 268 255 214 200 201 203 205 199 180 179 159 92 93 124 112 103 117 105 93 94 90 87 93 93 82 86 119 75 68 130 136 118 130 152 161 175 180 187 197 200 202 206 206 209 212 208 205 205 206 210 207 196 195 198 196 195 197 199 201 203 204 204 206 207 208 209 209 210 210 209 209
325 325 308 306 292 255 245 242 231 219 215 230 258 249 249 264 309 302 249 202 193 199 187 164 172 169 116 108 140 132 104 101 96 94 93 86 79 75 63 31 6 306 217 180 152 77 62 58 74 86 80 109 201 215 197 196 201 203 207 213 211 208 207 204 208 211 200 192 195 196 194 196 199 201 204 205 204 205 207 208 209 209 209 209 209 210
307 314 318 311 284 248 223 218 221 228 221 217 233 242 237 232 275 288 275 191 173 159 128 138 168 159 122 103 112 104 96 95 94 82 52 44 50 311 283 287 9 352 335 96 89 73 59 48 40 34 20 4 342 312 253 210 204 202 205 211 212 209 208 205 205 209 204 194 193 195 194 195 197 200 203 204 205 207 208 208 209 208 208 208 210 212
290 298 308 305 279 251 233 222 219 228 219 214 229 238 224 205 257 276 297 76 183 141 127 144 185 173 167 183 160 109 96 97 101 104 67 301 317 344 348 28 44 35 29 47 65 67 59 48 37 29 9 345 317 285 277 259 235 218 204 202 207 209 206 205 206 208 206 198 194 195 195 195 197 199 201 203 205 207 208 208 208 207 207 208 210 212
269 277 295 309 292 277 272 237 218 215 207 208 239 249 235 201 276 296 203 183 287 334 160 191 186 136 160 185 147 99 91 113 127 114 63 28 24 28 30 33 39 38 31 36 52 59 51 37 17 359 328 303 294 283 278 274 275 280 242 200 198 201 203 207 208 207 206 202 196 196 196 196 197 198 200 203 205 206 206 206 207 208 208 208 210 214
240 255 279 289 284 279 276 257 232 211 193 247 244 227 202 152 278 289 181 163 353 358 347 288 179 121 81 70 92 84 117 154 143 66 31 23 27 34 29 23 25 27 22 31 47 45 28 8 340 318 301 307 330 318 295 280 275 286 293 247 203 194 198 207 208 206 206 203 198 196 195 196 197 198 200 202 203 203 203 204 206 207 208 209 211 216
220 227 253 255 259 273 263 258 248 178 53 339 298 218 180 173 212 237 194 159 351 358 2 354 40 120 88 44 65 89 149 138 58 18 11 6 13 23 18 12 17 14 5 17 34 30 6 354 355 337 341 7 4 339 319 314 296 275 280 284 249 209 201 205 205 204 204 202 197 194 195 197 197 197 200 202 203 203 203 203 205 206 206 209 212 216
200 208 236 246 250 262 256 253 241 130 26 338 335 359 9 199 200 212 200 267 333 354 10 8 27 57 42 38 60 64 41 14 358 1 6 2 6 12 7 3 6 5 359 0 10 18 11 12 20 10 358 0 351 333 322 312 300 285 279 283 271 242 219 206 200 200 201 201 198 194 193 197 198 198 200 203 204 205 205 204 204 205 206 208 212 213
180 197 215 235 249 259 256 254 242 124 17 340 352 19 11 347 190 192 334 310 336 9 13 10 32 41 28 27 32 15 8 357 351 360 6 2 5 4 1 5 2 2 4 353 356 28 28 13 12 1 347 348 347 343 341 322 292 278 280 283 272 254 247 219 196 192 193 196 198 196 192 194 198 199 199 202 203 204 205 206 206 207 207 209 212 214
171 201 201 208 238 256 250 251 247 148 357 348 7 30 23 26 120 44 357 341 359 25 16 11 32 33 18 23 23 7 358 352 352 360 359 356 1 360 1 7 360 357 0 347 352 23 18 2 8 0 350 359 356 343 340 331 312 267 253 281 281 246 250 245 198 186 186 190 195 198 194 190 194 198 199 201 202 203 205 207 207 207 208 209 211 215
309 238 205 197 217 239 237 248 347 266 306 356 25 42 41 43 43 42 35 359 355 21 22 15 25 20 9 13 9 357 359 357 352 352 349 351 357 355 360 5 354 349 350 340 346 6 357 347 17 7 358 10 4 350 340 333 323 272 145 356 3 343 268 267 208 180 179 183 190 196 197 192 191 195 198 200 202 204 206 206 207 208 209 209 211 214
342 359 336 286 273 274 276 301 322 283 300 19 35 26 25 27 8 20 45 24 354 13 21 12 13 11 5 0 353 351 358 353 346 346 346 347 348 347 351 353 346 347 347 340 351 4 350 338 9 14 5 3 3 2 349 344 358 54 55 23 18 21 1 324 232 179 174 179 187 193 200 198 192 191 194 198 202 205 205 205 206 209 209 208 210 213
321 322 302 286 294 305 301 269 254 279 324 37 36 4 356 357 354 12 36 31 5 1 3 6 10 7 1 356 352 350 347 342 343 344 342 339 336 339 345 343 340 344 342 337 349 357 342 332 351 10 5 356 360 9 2 360 21 47 45 21 9 12 11 1 350 162 163 169 179 187 196 203 197 189 190 198 204 205 205 206 206 208 209 208 207 211
315 331 310 283 282 299 294 238 258 317 329 360 18 354 332 323 344 12 22 18 3 347 345 358 2 357 357 0 357 348 341 339 341 340 336 332 328 334 340 336 332 335 334 336 348 347 334 334 347 356 3 5 4 4 8 17 24 34 42 30 15 9 9 6 18 118 142 156 168 179 192 203 198 184 184 195 202 201 201 205 209 208 206 207 208 210
336 359 324 288 274 267 264 269 300 317 314 314 328 335 315 311 335 6 6 353 343 332 337 348 349 347 352 356 351 343 337 338 339 336 330 326 326 331 337 335 329 325 325 337 355 350 340 343 347 353 10 17 5 357 7 21 17 19 40 35 16 47 103 193 188 165 157 167 176 180 189 203 199 184 182 190 197 202 201 201 207 210 207 209 215 217
290 304 293 291 295 278 263 267 280 291 293 292 286 280 291 312 330 344 346 340 332 328 331 335 336 340 346 346 343 340 337 334 334 330 324 323 324 323 326 327 322 316 312 320 344 356 352 345 344 9 22 9 342 350 16 26 20 35 55 57 83 142 145 163 181 188 181 182 191 188 185 195 197 191 189 188 191 204 209 199 200 207 204 202 212 218
265 270 267 271 277 271 262 266 279 286 284 279 274 279 305 332 329 319 322 329 329 328 329 330 330 333 338 338 335 333 333 332 329 325 321 318 317 316 316 318 319 317 310 299 305 337 2 328 332 19 26 310 284 262 216 143 94 75 56 44 51 102 132 153 176 181 162 143 143 166 174 186 189 189 197 195 187 198 208 201 194 197 180 147 153 191
269 277 278 271 269 273 277 282 294 300 290 286 289 294 311 330 324 314 316 319 321 324 327 327 328 328 328 328 328 328 331 332 329 324 320 316 315 318 316 306 304 313 319 315 305 292 178 186 198 111 283 301 303 282 214 115 77 79 83 73 59 56 80 143 173 147 111 85 70 82 92 77 107 149 159 117 96 139 174 175 171 164 128 99 84 65